[Iaude] MPEC D41: 2001 QK153 [a=2.44,e=0.69,i=7.6,H=20.69]
    mpec at cfa.harvard.edu 
    mpec at cfa.harvard.edu
       
    Sat Feb 17 09:27:22 EST 2024
    
    
  
M.P.E.C. 2024-D41                             Issued 2024 February 17, 14:25 UT
     The Minor Planet Electronic Circulars contain information on unusual
         minor planets, routine data on comets and natural satellites,
         and occasional editorial announcements.  They are published
    on behalf of Division F of the International Astronomical Union by the
          Minor Planet Center, Smithsonian Astrophysical Observatory,
                          Cambridge, MA 02138, U.S.A.
			  
             Prepared using the Tamkin Foundation Computer Network
                              MPC at CFA.HARVARD.EDU
            URL https://www.minorplanetcenter.net/    ISSN 1523-6714
                                   2001 QK153                                   
                           Revision to MPEC 2001-Q62                            
Additional Observations:
     K01QF3K  C2024 02 15.56924812 18 27.977-21 52 42.61         22.08wXED041F52
     K01QF3K  C2024 02 15.58040912 18 28.737-21 53 03.24         21.65wXED041F52
     K01QF3K  C2024 02 15.59155112 18 29.492-21 53 23.29         21.64wXED041F52
     K01QF3K  C2024 02 15.60272612 18 30.258-21 53 44.13         21.73wXED041F52
     K01QF3K KC2024 02 16.38796912 19 28.844-22 17 57.34         21.84GVED041V06
     K01QF3K KC2024 02 16.39106512 19 29.046-22 18 03.46         21.67GVED041V06
     K01QF3K KC2024 02 16.39416112 19 29.258-22 18 08.93         21.60GVED041V06
     K01QF3K KC2024 02 17.41098312 20 45.532-22 50 17.66         21.42GVED041V06
     K01QF3K KC2024 02 17.41417612 20 45.755-22 50 23.86         21.80GVED041V06
     K01QF3K KC2024 02 17.42364112 20 46.421-22 50 42.18         21.67GVED041V06
     K01QF3K KC2024 02 17.42683212 20 46.644-22 50 48.23         21.99GVED041V06
     K01QF3K  C2024 02 17.43284512 20 47.021-22 50 59.99         21.3 GVED041H01
     K01QF3K  C2024 02 17.44049312 20 47.548-22 51 14.36         21.1 GVED041H01
     K01QF3K  C2024 02 17.44916812 20 48.161-22 51 31.36         21.7 GVED041H01
     K01QF3K  C2024 02 17.45740412 20 48.739-22 51 47.17         21.3 GVED041H01
Observer details:
F52 Pan-STARRS 2, Haleakala.  Observers J. Herman, T. Lowe, P. Minguez, A.
    Schultz, I. Smith.  Measurers K. Chambers, T. de Boer, J. Fairlamb, H.
    Gao, M. Huber, C.-C. Lin, E. Magnier, Y. Ramanjooloo, R. Wainscoat, R.
    Weryk.  1.8-m Ritchey-Chretien + CCD.
H01 Magdalena Ridge Observatory, Socorro.  Observers W. H. Ryan, E. V. Ryan.
    Measurer W. H. Ryan.  2.4-m f/8.9 Ritchey-Chretien + CCD.
V06 Catalina Sky Survey-Kuiper.  Observer J. B. Fazekas.  Measurers T. Beuden,
    V. F. Carvajal, D. Fay, J. B. Fazekas, D. C. Fuls, A. R. Gibbs, A. D.
    Grauer, H. Groeller, J. K. Hogan, R. A. Kowalski, S. M. Larson, G. J.
    Leonard, D. Rankin, R. L. Seaman, F. C. Shelly, K. W. Wierzchos.  1.55-m
    reflector + 1K CCD.
First and last observations above in comparison with prediction:
Residuals in seconds of arc (or two decimals in degrees), reference and Delta-T
240215 F52 2.98- 1.24-    240217 H01 3.16- 1.31-    E2024-B28   -2.02 days
Orbital elements:
2001 QK153                                               Earth MOID = 0.1161 AU
Epoch 2024 Mar. 31.0 TT = JDT 2460400.5                 Veres                   
M 349.28515              (2000.0)            P               Q                  
n   0.25857933     Peri.    2.64300     -0.11834770     +0.98444705             
a   2.4400956      Node   260.58308     -0.91343127     -0.15921072             
e   0.6888425      Incl.    7.56272     -0.38940614     +0.07426952             
P   3.81           H   20.69          G   0.15           U   1                  
Residuals in seconds of arc
010827 704  0.8-  0.4-    010910 649  0.3-  0.0     240215 F52  0.2+  0.4-
010827 704  0.6-  0.5-    010910 649  0.3-  0.3+    240216 V06  0.2+  0.0
010827 704  0.2-  0.3-    010922 649  0.5-  0.0     240216 V06  0.0   0.3-
010827 704  1.1-  0.2-    010922 649  0.1-  0.2+    240216 V06  0.0   0.0
010827 704  0.4-  0.5-    010922 649  0.4-  0.2-    240217 V06  0.1-  0.1+
010828 046  1.5+  0.3-    010922 291 (5.7- 10.4-)   240217 V06  0.1-  0.0
010828 046  0.3+  0.3+    010922 291 (4.6- 11.9-)   240217 V06  0.0   0.1-
010828 649  0.3-  0.5-    010922 291 (7.1- 13.3-)   240217 V06  0.0   0.0
010828 649  0.5-  0.0     010926 644  0.1-  0.3-    240217 H01  0.1+  0.0
010828 649  0.6-  0.1-    011011 696  0.6+  0.1-    240217 H01  0.1-  0.3+
010901 649  0.8+  0.4+    011011 696  0.2+  0.1+    240217 H01  0.0   0.0
010901 649  0.1+  0.5+    240215 F52  0.1-  0.2+    240217 H01  0.0   0.0
010901 649  0.3-  0.4+    240215 F52  0.0   0.1-
010910 649  0.3+  0.1-    240215 F52  0.0   0.1+
Ephemeris:
2001 QK153               a,e,i = 2.44, 0.69, 8                   q = 0.7593
Date    TT    R. A. (2000) Decl.     Delta      r    Elong.  Phase     V
2024 01 18    11 46 13.7 -11 04 10   1.0803  1.7433   115.2    30.7    23.4
...
2024 02 02    12 02 53.1 -16 00 51   0.8207  1.5956   123.9    30.9    22.6
...
2024 02 10    12 11 53.1 -19 14 48   0.6931  1.5146   127.9    30.9    22.1
...
2024 02 16    12 18 59.8 -22 05 43   0.6030  1.4530   130.4    31.2    21.7
2024 02 17    12 20 14.4 -22 36 58   0.5885  1.4427   130.8    31.2    21.7
2024 02 18    12 21 30.4 -23 09 07   0.5741  1.4324   131.1    31.3    21.6
...
2024 02 24    12 29 45.4 -26 44 52   0.4908  1.3701   132.6    32.1    21.2
...
2024 03 03    12 43 55.2 -32 57 14   0.3884  1.2865   132.6    34.5    20.6
...
2024 03 18    13 49 30.6 -53 08 28   0.2313  1.1304   120.5    49.3    19.6
A. U. Tomatic                (C) Copyright 2024 MPC           M.P.E.C. 2024-D41
    
    
More information about the Iaude
mailing list